Regional Weather Roundup
Issued by NWS Charleston, WV

Home | Current Version | Previous Version | Text Only | Print | Product List | Glossary Off
Versions: 1 2 3 4 5 6 7 8 9 10 11 12 13 14 15 16 17 18 19 20 21 22 23 24 25 26 27 28 29 30 31 32 33 34 35 36 37 38 39 40 41 42 43 44 45 46 47 48 49 50

000
ASUS41 KRLX 280410
RWRRLX
West Virginia Regional Weather Roundup
National Weather Service Charleston WV
1200 AM EDT TUE APR 28 2015

Note: "fair" indicates few or no clouds below 12,000 feet with no
significant weather and/or obstructions to visibility.

WVZ003-280500-
Northern Panhandle of West Virginia

CITY           SKY/WX    TMP DP  RH WIND       PRES   REMARKS
WHEELING       CLOUDY    41  34  76 NW8       30.03S
$$

WVZ009-280500-
Northwest West Virginia

CITY           SKY/WX    TMP DP  RH WIND       PRES   REMARKS
PARKERSBURG    PTCLDY    44  31  60 N3        30.08R
$$

WVZ006-280500-
Western West Virginia

CITY           SKY/WX    TMP DP  RH WIND       PRES   REMARKS
HUNTINGTON     CLEAR     47  36  65 N8        30.04R
$$

WVZ015-280500-
West Central West Virginia

CITY           SKY/WX    TMP DP  RH WIND       PRES   REMARKS
CHARLESTON     MOCLDY    48  35  60 N5        30.03R
$$

WVZ022-031-280500-
North Central West Virginia

CITY           SKY/WX    TMP DP  RH WIND       PRES   REMARKS
CLARKSBURG     CLOUDY    43  31  62 N5        30.02R
MORGANTOWN     CLOUDY    43  30  60 VRB3      30.02S
$$

WVZ025-035-042-045-280500-
Southern West Virginia

CITY           SKY/WX    TMP DP  RH WIND       PRES   REMARKS
BECKLEY        CLOUDY    44  32  62 N8        29.98R
LOGAN          CLOUDY    48  36  61 VRB6      29.97S
BLUEFIELD      PTCLDY    46  30  53 N3        29.97S
LEWISBURG      CLEAR     42  32  68 CALM      29.97R
$$

WVZ047-280500-
Northern Mountains of West Virginia

CITY           SKY/WX    TMP DP  RH WIND       PRES   REMARKS
ELKINS         CLOUDY    41  30  65 N10G23    30.00R
$$

WVZ052-280500-
Eastern Panhandle of West Virginia

CITY           SKY/WX    TMP DP  RH WIND       PRES   REMARKS
MARTINSBURG    CLEAR     47  33  58 NW10      29.94R
PETERSBURG     CLOUDY    43  28  55 NW8       30.01R
$$



USA.gov is the U.S. government's official web portal to all federal, state and local government web resources and services.